Etusivu
METAR-TAF:

METAR-TAF

Lentoasemat :

Salt Point, Louisiana, Yhdysvallat

Leveyspiiri: 29-33-44N, Pituuspiiri: 091-31-32W, korkeus merenpinnasta: 0 m

Tämänhetkinen sää

Tämä raportti tehtiin 1 tunti ja 19 minuuttia sitten, kello 07.59 UTC
Tuuli 4 kn lännestä/luoteesta
Lämpötila 13°C
Kosteus 100%
Ilmanpaine 1013 hPa

METAR: KP92 220759Z AUTO 29004KT 13/13 A2991 RMK AO1 SLP128 T01330133

Aika: 03:18 (09:18 UTC)


TAF: puuttuu

Säähavainnot ja -ennusteet yli 4000 lentoasemalta (METAR- ja TAF-raportit).

Käytössä olevat sääasemat on merkitty karttaan keltaisilla ja punaisilla pisteillä.

Aseta hiiri pisteen päälle nähdäksesi sääaseman nimen.

Klikkaa sitten nähdäksesi säähavainnot ja -ennusteet.

Kartan vaihtaminen: klikkaa mustalla rastilla varustettuja vihreitä pisteitä, niin voit zoomata sisään; viivalla varustettua vihreää pistettä, niin voit zoomata ulos tai vihreitä nuolia, niin pääset viereisille kartoille.


METAR-TAF: